Miscellaneous Local Product
Issued by NWS Hastings, NE

Home | Current Version | Previous Version | Graphics & Text | Print | Product List | Glossary On
Versions: 1 2 3 4 5 6 7 8 9 10 11 12 13 14 15 16 17 18 19 20 21 22 23 24 25 26 27 28 29 30 31 32 33 34 35 36 37 38 39 40 41 42 43 44 45 46 47 48 49 50
000
AXUS43 KGID 231402
MISGRI

GID CWA HOURLY WEATHER ROUNDUP
NATIONAL WEATHER SERVICE HASTINGS NE
900 AM CDT SAT JUL 23 2016

NOTE: "FAIR" INDICATES FEW OR NO CLOUDS BELOW 12,000 FEET WITH NO
SIGNIFICANT WEATHER AND/OR OBSTRUCTIONS TO VISIBILITY.

...SOUTH CENTRAL NEBRASKA...

CITY           SKY/WX    TMP DP  RH WIND       PRES   REMARKS
GRAND ISLAND   CLOUDY    76  69  79 SE5       29.86S
HASTINGS       MOSUNNY   77  69  76 S6        29.86R
KEARNEY        CLOUDY    75  66  73 S8        29.87R
ORD            CLOUDY    75  69  81 SE8       29.87R
YORK           CLOUDY    77  72  83 SE3       29.85F
AURORA         CLOUDY    76  72  88 SE6       29.85F
LEXINGTON      MOSUNNY   78  66  65 S12       29.86R
HOLDREGE       MOSUNNY   77  66  68 S10       29.86S
HEBRON         CLOUDY    78  67  68 S13       29.85F

...NEBRASKA PANHANDLE...

CITY           SKY/WX    TMP DP  RH WIND       PRES   REMARKS
CHADRON        SUNNY     74  63  68 SW12      29.89R
ALLIANCE       CLOUDY    72  63  73 SW9       29.94S
SCOTTSBLUFF    SUNNY     74  59  59 NW5       29.97R
SIDNEY         CLOUDY    78  61  55 SW18G24   30.03S

...WESTERN AND NORTH CENTRAL NEBRASKA...

CITY           SKY/WX    TMP DP  RH WIND       PRES   REMARKS
VALENTINE      SUNNY     77  64  64 SW8       29.83R
AINSWORTH      SUNNY     76  66  71 S6        29.85R
ONEILL         CLOUDY    76  70  81 S3        29.87R
BROKEN BOW     MOSUNNY   73  69  87 NE5       29.88R
IMPERIAL       CLOUDY    75  65  70 SW6       29.96R
NORTH PLATTE   SUNNY     77  67  71 W8        29.90S
MCCOOK         CLOUDY    77  66  68 S7        29.90R

...EASTERN NEBRASKA...

CITY           SKY/WX    TMP DP  RH WIND       PRES   REMARKS
NORFOLK        CLOUDY    75  71  87 E5        29.84F
SO SIOUX CITY  PTSUNNY   79  75  87 S9        29.82F
TEKAMAH        CLOUDY    79  73  82 S7        29.84S
COLUMBUS       CLOUDY    75  66  73 SE5       29.86F
ALBION         CLOUDY    74  69  85 CALM      29.87S
OMAHA EPPLEY   CLOUDY    84  70  62 S10       29.84S
OFFUTT AFB     CLOUDY    82  71  68 VRB7      29.84F
MILLARD        PTSUNNY   83  71  67 SW6       29.84F
LINCOLN        CLOUDY    80  71  74 S7        29.86S
NEBRASKA CITY  CLOUDY    77  73  86 S10       29.88F
BEATRICE       CLOUDY    77  69  76 SE8G17    29.87F
FALLS CITY     CLOUDY    82  73  74 S12       29.89F

...NORTHERN KANSAS...

CITY           SKY/WX    TMP DP  RH WIND       PRES   REMARKS
GOODLAND       SUNNY     75  64  68 SE13      29.95F
HILL CITY      PTSUNNY   78  70  76 SE8       29.89F
NORTON         SUNNY     73  64  73 S7        29.88F
SMITH CENTER   SUNNY     75  66  73 E12       29.86S
BELOIT         SUNNY     79  70  73 SE13      29.86F
HAYS           PTSUNNY   81  63  54 SE14      29.91F
RUSSELL        MOSUNNY   83  65  54 S14       29.92F
CONCORDIA      CLOUDY    82  66  58 S15       29.89F
SALINA         PTSUNNY   86  67  52 S9        29.94F
TOPEKA         CLOUDY    85  72  65 S7        29.95F HX  91



USA.gov is the U.S. government's official web portal to all federal, state and local government web resources and services.